Location: Philipsburg
(46.3359°N, 113.2993°W)
Time: 18:38:09
(UTC+00:00)

Envisat - Visible Passes

Search period start: 21 January 2022 00:00
Search period end: 31 January 2022 00:00
Orbit: 764 x 766 km, 98.2° (Epoch: 20 January)

Date Brightness Start Highest point End Pass type
(mag) Time Alt. Az. Time Alt. Az. Time Alt. Az.
21 Jan 3.1 12:27:30 10° NNE 12:32:36 74° ESE 12:37:40 10° S visible
21 Jan 4.4 14:07:47 10° NNW 14:11:02 17° WNW 14:14:16 10° W visible
22 Jan 4.4 11:50:56 10° NNE 11:55:35 35° E 12:00:12 10° SSE visible
22 Jan 3.6 13:30:02 10° N 13:34:33 33° WNW 13:39:03 10° SW visible
23 Jan 5.6 11:15:06 10° NE 11:18:22 17° E 11:21:37 10° SE visible
23 Jan 2.9 12:52:48 10° N 12:57:52 67° WNW 13:02:53 10° SSW visible
24 Jan 3.5 12:15:57 10° NNE 12:20:59 59° E 12:25:59 10° S visible
24 Jan 4.2 13:55:50 10° NNW 13:59:35 21° WNW 14:03:18 10° WSW visible
25 Jan 6.4 01:16:34 10° W 01:17:51 11° W 01:19:08 10° WNW visible
25 Jan 4.8 11:39:32 10° NE 11:43:54 28° E 11:48:14 10° SSE visible
25 Jan 3.3 13:18:17 10° N 13:23:02 40° WNW 13:27:45 10° SW visible
26 Jan 5.8 11:04:11 10° ENE 11:06:37 13° E 11:09:02 10° ESE visible
26 Jan 2.8 12:41:11 10° NNE 12:46:17 83° WNW 12:51:22 10° SSW visible
26 Jan 4.6 14:22:08 10° NNW 14:24:30 13° NW 14:26:53 10° W visible
27 Jan 3.9 12:04:26 10° NNE 12:09:21 47° E 12:14:14 10° S visible
27 Jan 3.9 13:43:58 10° N 13:48:06 26° WNW 13:52:13 10° WSW visible
28 Jan 6.0 01:03:28 10° WSW 01:06:05 14° W 01:08:44 10° NW visible
28 Jan 5.2 11:28:14 10° NE 11:32:13 23° E 11:36:10 10° SE visible
28 Jan 3.1 13:06:35 10° N 13:11:30 50° WNW 13:16:23 10° SW visible
29 Jan 6.0 10:54:10 10° ENE 10:54:51 10° E 10:55:32 10° E visible
29 Jan 3.0 12:29:34 10° NNE 12:34:42 79° ESE 12:39:46 10° S visible
29 Jan 4.4 14:10:00 10° NNW 14:13:05 16° WNW 14:16:10 10° W visible
30 Jan 4.3 11:52:58 10° NNE 11:57:41 37° E 12:02:23 10° SSE visible
30 Jan 3.7 13:32:10 10° N 13:36:37 31° WNW 13:41:02 10° SW visible
